User: anonymous   Login
Location: NJAA Observatory
(40.6819°N, 74.8979°W)
Time: 09:24:10
(UTC-04:00)
Language:

Iridium 84 - Orbit

View from above orbital plane
View from above orbital plane
View from above satellite
View from above satellite

Ground track
Ground track

The orbit data is extracted from the following two-line orbital elements,

1 25530U 98066D   15142.50536857  .00000012  00000-0 -29190-5 0  9996
2 25530 086.3929 306.2874 0002222 094.2998 265.8451 14.34217965868547
Epoch (UTC): 22 May 2015 12:07:43
Eccentricity: 0.0002222
inclination: 86.3929°
perigee height: 776 km
apogee height: 779 km
right ascension of ascending node: 306.2874°
argument of perigee: 94.2998°
revolutions per day: 14.34217965
mean anomaly at epoch: 265.8451°
orbit number at epoch: 86854

The dashed part of the orbit path shows where the satellite is in the earth's shadow,  

DLR